[[{"header":{"parameterUnit":"m.s-1","parameterCategory":1,"la1":30.2991,"la2":30.254,"lo1":-89.0895,"lo2":-89.0444,"dy":0.0017,"dx":0.0017,"nx":28,"ny":28,"refTime":"2023-11-01T09:00:00:Z","depth":0,"parameterNumber":2,"parameterNumberName":"U-component_of_WINDS"},"data":[0,0,0,0,0,0,0,0,0,0,0,0,0,0,0,0,0,0,0,0,0,0,0,0,0,0,0,0,0,0,0,0,0,0,0,0,0,0,0,0,0,0,0,0,0,0,0,0,0,0,0,0,0,0,0,0,0,0,-6.3665,-6.3666,0,-6.3787,-6.3788,-6.379,-6.37,-6.3696,-6.3692,-6.3689,-6.3814,-6.382,-6.3827,0,0,0,0,0,0,0,0,0,0,0,0,0,-6.3355,-6.3361,-6.3665,-6.3666,-6.3668,-6.3787,-6.3788,-6.379,-6.3701,-6.3696,-6.3691,-6.3687,-6.3811,-6.382,-6.3828,0,0,0,0,0,0,0,0,0,0,0,0,0,-6.3484,-6.3363,-6.3665,-6.3638,-6.3637,-6.3786,-6.3789,-6.3791,-6.3702,-6.3696,-6.369,-6.3685,-6.3809,-6.3819,-6.3829,-6.4012,0,0,-6.3861,-6.3866,0,0,0,0,0,0,0,0,-6.3477,-6.3496,-6.364,-6.364,-6.3639,-6.3722,-6.3725,-6.3865,-6.3703,-6.3677,-6.3688,-6.3682,-6.3788,-6.38,-6.3836,-6.4018,-6.4023,-6.3862,-6.3869,-6.3873,-6.3876,0,0,0,0,0,0,0,-6.3468,-6.349,-6.3713,-6.3642,-6.3642,-6.362,-6.3632,-6.3751,-6.3764,-6.3679,-6.3673,-6.3688,-6.3787,-6.3826,-6.3838,-6.4025,-6.3862,-6.3871,-6.3878,-6.3882,-6.4365,-6.4371,0,0,0,0,0,0,-6.3462,-6.3483,-6.3709,-6.3717,-6.3542,-6.363,-6.3643,-6.3701,-6.3763,-6.3766,-6.3693,-6.3684,-6.3811,-6.3826,-6.3842,-6.4061,-6.3873,-6.3883,-6.3889,-6.4358,-6.4366,-6.4373,0,0,0,0,0,0,-6.3456,-6.3483,-6.3704,-6.3598,-6.3625,-6.3642,-6.3708,-6.3707,-6.3746,-6.3774,-6.3775,-6.3731,-6.3807,-6.3827,-6.3971,-6.4064,-6.3888,-6.3897,-6.435,-6.4361,-6.437,-6.45,0,0,0,0,0,0,-6.3447,-6.3481,-6.3551,-6.3601,-6.3631,-6.3831,-6.3713,-6.3714,-6.3765,-6.3753,-6.3809,-6.3813,-6.3804,-6.3956,-6.3981,-6.4075,-6.3905,-6.4342,-6.4355,-6.4366,-6.4487,-6.4513,-6.4535,0,0,0,0,0,-6.3436,-6.3582,-6.3555,-6.3583,-6.3718,-6.3837,-6.3854,-6.384,-6.3772,-6.3843,-6.386,-6.3811,-6.405,-6.3971,-6.3999,-6.4098,-6.4336,-6.4351,-6.4366,-6.4477,-6.4508,-6.4534,0,0,0,0,0,0,-6.3543,-6.3588,-6.3558,-6.3725,-6.3778,-6.3821,-6.3909,-6.3874,-6.3947,-6.3933,-6.3913,-6.3926,-6.4077,-6.4101,-6.4013,-6.4278,-6.4182,-6.4203,-6.4257,-6.4287,-6.431,-6.4301,-6.3914,0,0,0,0,0,-6.3586,-6.3678,-6.3713,-6.3857,-6.3885,-6.3893,-6.3944,-6.3929,-6.3983,-6.4004,-6.4032,-6.4087,-6.4174,-6.4231,-6.4313,-6.449,-6.4501,-6.4572,-6.4596,-6.4615,-6.4633,-6.473,-6.4761,-6.4421,-6.4421,-6.4421,0,0,-6.3675,-6.3712,-6.3771,-6.3879,-6.3918,-6.4014,-6.3912,-6.4018,-6.4089,-6.402,-6.4158,-6.4181,-6.424,-6.4401,-6.4474,-6.4426,-6.473,-6.4634,-6.4649,-6.4657,-6.4748,-6.478,-6.4809,-6.4431,-6.4429,-6.4428,0,0,-6.3887,-6.3924,-6.4048,-6.409,-6.415,-6.4155,-6.4185,-6.4235,-6.4247,-6.4385,-6.4335,-6.442,-6.457,-6.4614,-6.4656,-6.4887,-6.4845,-6.4914,-6.5038,-6.5132,-6.5159,-6.5182,-6.5265,-6.5295,-6.4932,-6.4933,-6.4933,0,-6.3991,-6.4134,-6.4117,-6.4227,-6.4276,-6.4218,-6.4344,-6.4385,-6.4469,-6.4504,-6.445,-6.4638,-6.4674,-6.4845,-6.4901,-6.4937,-6.4971,-6.4907,-6.5156,-6.518,-6.5202,-6.528,-6.5311,-6.4941,-6.494,-6.4939,-6.4938,0,-6.4259,-6.4359,-6.4452,-6.4535,-6.4595,-6.4712,-6.4712,-6.4775,-6.4755,-6.4765,-6.4906,-6.4947,-6.5037,-6.5076,-6.5057,-6.5245,-6.5214,-6.5159,-6.5062,-6.5243,-6.5316,-6.5346,-6.4952,-6.4949,-6.4947,-6.4945,0,0,-6.4541,-6.4614,-6.4648,-6.4686,-6.4749,-6.4826,-6.4941,-6.5028,-6.5082,-6.5143,-6.5239,-6.5368,-6.5317,-6.5365,-6.5351,-6.5434,-6.5614,-6.5368,-6.5369,-6.5412,-6.5824,-6.5866,-6.5901,-6.5586,-6.5592,-6.5597,-6.5819,0,-6.4757,-6.4958,-6.4946,-6.5134,-6.5226,-6.5173,-6.5273,-6.5323,-6.5336,-6.5417,-6.5431,-6.5523,-6.5449,-6.5478,-6.5557,-6.5575,-6.5696,-6.5559,-6.5676,-6.568,-6.5663,-6.5939,-6.5983,-6.6191,-6.5848,-6.5853,-6.5856,0,-6.5036,-6.5106,-6.5304,-6.5354,-6.5392,-6.5482,-6.5562,-6.5639,-6.5695,-6.5698,-6.5753,-6.5725,-6.5842,-6.5742,-6.5902,-6.5809,-6.5856,-6.5873,-6.5881,-6.5891,-6.5779,-6.5957,-6.6257,-6.6288,-6.5901,-6.5898,-6.5894,0,-6.5223,-6.5367,-6.5504,-6.5537,-6.5599,-6.5663,-6.5692,-6.5742,-6.5795,-6.5865,-6.5899,-6.5981,-6.6027,-6.6091,-6.6087,-6.6014,-6.625,-6.6149,-6.6257,-6.6257,-6.6308,-6.6305,-6.662,-6.6339,-6.6339,-6.6338,-6.6337,0,-6.5465,-6.5588,-6.5589,-6.5673,-6.581,-6.5795,-6.593,-6.5952,-6.5996,-6.6084,-6.6043,-6.6126,-6.6115,-6.6199,-6.6197,-6.633,-6.6351,-6.6357,-6.6355,-6.6361,-6.6361,-6.6392,-6.6377,-6.6346,-6.6345,-6.6343,-6.6341,0,-6.5697,-6.5702,-6.5848,-6.5894,-6.5909,-6.6008,-6.6047,-6.6127,-6.6137,-6.6249,-6.6274,-6.6289,-6.6386,-6.6388,-6.6499,-6.6497,-6.666,-6.6642,-6.6642,-6.6638,-6.6745,-6.6735,-6.7091,-6.7137,-6.6826,-6.6829,-6.6832,0,-6.5851,-6.5945,-6.6002,-6.6057,-6.609,-6.6181,-6.6235,-6.6224,-6.6283,-6.6353,-6.6425,-6.6518,-6.6591,-6.6748,-6.677,-6.6854,-6.6838,-6.6957,-6.685,-6.6853,-6.684,-6.6834,-6.6844,-6.6977,-6.6981,-6.6984,-6.6986,0,-6.6125,-6.6123,-6.6203,-6.6285,-6.6351,-6.6415,-6.6474,-6.6522,-6.6518,-6.6586,-6.6684,-6.6741,-6.6854,-6.6947,-6.7029,-6.7059,-6.7023,-6.702,-6.7049,-6.7056,-6.7052,-6.7056,-6.6699,-6.7011,-6.7009,-6.7007,-6.7006,-6.7005,-6.6323,-6.6404,-6.6457,-6.6547,-6.659,-6.6647,-6.6724,-6.6744,-6.6826,-6.6917,-6.6906,-6.7015,-6.7069,-6.7175,-6.7212,-6.7298,-6.7257,-6.7299,-6.731,-6.732,-6.7332,-6.7039,-6.7313,-6.7312,-6.7311,-6.7311,-6.731,0,-6.6595,-6.6626,-6.671,-6.6794,-6.6865,-6.6825,-6.6888,-6.6951,-6.7048,-6.7101,-6.7174,-6.7287,-6.7377,-6.7406,-6.7493,-6.7557,-6.7542,-6.758,-6.7575,-6.7583,-6.7364,-6.733,-6.759,-6.759,-6.759,-6.759,-6.759,-6.759,-6.6744,-6.6879,-6.6884,-6.704,-6.707,-6.7177,-6.7217,-6.7269,-6.7311,-6.7439,-6.7514,-6.7532,-6.7575,-6.7666,-6.7747,-6.7753,-6.7787,-6.7832,-6.7831,-6.7626,-6.7598,-6.7571,-6.7539,-6.7839,-6.784,-6.8043,-6.8044,-6.8046]},{"header":{"parameterUnit":"m.s-1","parameterCategory":1,"la1":30.2991,"la2":30.254,"lo1":-89.0895,"lo2":-89.0444,"dy":0.0017,"dx":0.0017,"nx":28,"ny":28,"refTime":"2023-11-01T09:00:00:Z","depth":0,"parameterNumber":3,"parameterNumberName":"V-component_of_WINDS"},"data":[0,0,0,0,0,0,0,0,0,0,0,0,0,0,0,0,0,0,0,0,0,0,0,0,0,0,0,0,0,0,0,0,0,0,0,0,0,0,0,0,0,0,0,0,0,0,0,0,0,0,0,0,0,0,0,0,0,0,-1.3037,-1.3036,0,-1.2991,-1.2991,-1.299,-1.2962,-1.2962,-1.2962,-1.2962,-1.2916,-1.2915,-1.2914,0,0,0,0,0,0,0,0,0,0,0,0,0,-1.3098,-1.3097,-1.3037,-1.3036,-1.3035,-1.2991,-1.2991,-1.299,-1.2962,-1.2962,-1.2962,-1.2962,-1.2917,-1.2915,-1.2914,0,0,0,0,0,0,0,0,0,0,0,0,0,-1.3064,-1.3097,-1.3037,-1.3016,-1.3014,-1.2991,-1.2991,-1.299,-1.2962,-1.2962,-1.2962,-1.2962,-1.2917,-1.2916,-1.2914,-1.2909,0,0,-1.2909,-1.2908,0,0,0,0,0,0,0,0,-1.3066,-1.3062,-1.302,-1.3018,-1.3015,-1.2982,-1.2996,-1.2963,-1.2962,-1.2982,-1.2962,-1.2962,-1.2939,-1.2935,-1.2927,-1.2906,-1.2904,-1.2909,-1.2908,-1.2907,-1.2907,0,0,0,0,0,0,0,-1.3069,-1.3064,-1.3019,-1.3019,-1.3016,-1.3009,-1.3004,-1.2989,-1.2962,-1.298,-1.2978,-1.2973,-1.2937,-1.2929,-1.2926,-1.2904,-1.2909,-1.2908,-1.2907,-1.2906,-1.2874,-1.2874,0,0,0,0,0,0,-1.3074,-1.3066,-1.302,-1.3017,-1.3041,-1.3008,-1.3003,-1.2993,-1.2962,-1.2957,-1.2973,-1.2972,-1.2932,-1.2928,-1.2924,-1.2914,-1.2907,-1.2906,-1.2905,-1.2874,-1.2874,-1.2874,0,0,0,0,0,0,-1.3076,-1.307,-1.3022,-1.3041,-1.3034,-1.3007,-1.2997,-1.2992,-1.2984,-1.2957,-1.2952,-1.297,-1.2931,-1.2926,-1.2912,-1.2912,-1.2905,-1.2904,-1.2874,-1.2874,-1.2874,-1.2895,0,0,0,0,0,0,-1.3078,-1.3071,-1.3069,-1.3041,-1.3033,-1.3011,-1.2997,-1.2992,-1.2981,-1.2979,-1.2952,-1.2948,-1.2931,-1.2915,-1.291,-1.291,-1.2902,-1.2874,-1.2874,-1.2874,-1.2895,-1.2896,-1.2898,0,0,0,0,0,-1.308,-1.3077,-1.3069,-1.3064,-1.303,-1.3011,-1.3007,-1.2987,-1.2981,-1.2978,-1.2961,-1.2949,-1.2913,-1.2913,-1.2908,-1.2908,-1.2873,-1.2874,-1.2874,-1.2894,-1.2896,-1.2898,0,0,0,0,0,0,-1.3107,-1.3074,-1.3064,-1.3052,-1.3035,-1.3006,-1.3003,-1.299,-1.2974,-1.2972,-1.2949,-1.2943,-1.2931,-1.2918,-1.2919,-1.2899,-1.2892,-1.2891,-1.2908,-1.291,-1.2912,-1.2915,-1.2901,0,0,0,0,0,-1.3111,-1.3098,-1.307,-1.3063,-1.3054,-1.303,-1.3021,-1.3007,-1.2988,-1.298,-1.2962,-1.2944,-1.2928,-1.2919,-1.2903,-1.2892,-1.2886,-1.2889,-1.2891,-1.2892,-1.2892,-1.2884,-1.2885,-1.2875,-1.2875,-1.2875,0,0,-1.3121,-1.3101,-1.3094,-1.3068,-1.3052,-1.3039,-1.3024,-1.3011,-1.3001,-1.2978,-1.2963,-1.2949,-1.2927,-1.2914,-1.2907,-1.2903,-1.2893,-1.2893,-1.2894,-1.2893,-1.2884,-1.2885,-1.2886,-1.2875,-1.2875,-1.2875,0,0,-1.3131,-1.3115,-1.3106,-1.3091,-1.3067,-1.3051,-1.3049,-1.3022,-1.3011,-1.2995,-1.2978,-1.2965,-1.294,-1.2924,-1.2913,-1.2915,-1.2903,-1.2911,-1.2919,-1.2911,-1.2912,-1.2913,-1.2912,-1.2913,-1.291,-1.2911,-1.2911,0,-1.3146,-1.3125,-1.3103,-1.3091,-1.3079,-1.3057,-1.3048,-1.3034,-1.3007,-1.2999,-1.2994,-1.296,-1.2944,-1.2926,-1.2926,-1.2918,-1.2915,-1.2914,-1.2914,-1.2914,-1.2914,-1.2914,-1.2914,-1.2912,-1.2911,-1.2911,-1.2911,0,-1.3143,-1.3129,-1.3125,-1.3098,-1.3086,-1.3075,-1.3051,-1.3041,-1.3028,-1.3012,-1.2996,-1.2975,-1.2954,-1.2949,-1.2937,-1.2929,-1.2927,-1.2918,-1.291,-1.2917,-1.2916,-1.2915,-1.2913,-1.2913,-1.2912,-1.2912,0,0,-1.317,-1.313,-1.3129,-1.3116,-1.3087,-1.3076,-1.3064,-1.3042,-1.3034,-1.3016,-1.3004,-1.2982,-1.2973,-1.296,-1.2946,-1.2939,-1.294,-1.2931,-1.293,-1.2932,-1.2929,-1.2935,-1.2936,-1.2932,-1.2932,-1.2932,-1.2931,0,-1.3175,-1.3151,-1.3131,-1.3115,-1.31,-1.3079,-1.3068,-1.3049,-1.3033,-1.3019,-1.3002,-1.2986,-1.2976,-1.2968,-1.296,-1.2942,-1.2939,-1.2942,-1.292,-1.292,-1.2926,-1.2935,-1.2942,-1.2942,-1.293,-1.293,-1.293,0,-1.3178,-1.3159,-1.3142,-1.3113,-1.3106,-1.3097,-1.3075,-1.3062,-1.3039,-1.3028,-1.3013,-1.2998,-1.2983,-1.2976,-1.2954,-1.2956,-1.2946,-1.2936,-1.2935,-1.2932,-1.2925,-1.2932,-1.2942,-1.2942,-1.2929,-1.293,-1.293,0,-1.3198,-1.3168,-1.3153,-1.3143,-1.311,-1.3103,-1.3089,-1.3066,-1.3054,-1.3035,-1.3027,-1.3007,-1.2996,-1.298,-1.2959,-1.2956,-1.2939,-1.2931,-1.2929,-1.293,-1.2927,-1.2927,-1.2935,-1.2921,-1.2921,-1.2921,-1.2921,0,-1.3205,-1.3195,-1.3161,-1.3152,-1.3139,-1.3116,-1.3104,-1.3088,-1.3067,-1.3054,-1.3035,-1.3023,-1.2996,-1.2981,-1.2964,-1.2948,-1.2944,-1.2934,-1.2929,-1.2935,-1.2936,-1.2928,-1.2927,-1.2921,-1.2921,-1.2921,-1.2921,0,-1.3225,-1.3202,-1.3184,-1.3153,-1.3145,-1.3137,-1.3111,-1.3101,-1.3084,-1.3067,-1.3062,-1.3035,-1.3016,-1.2993,-1.2967,-1.2956,-1.2941,-1.2935,-1.2948,-1.2945,-1.2944,-1.2945,-1.2947,-1.2945,-1.2934,-1.2934,-1.2934,0,-1.323,-1.3222,-1.319,-1.3179,-1.3165,-1.3149,-1.3136,-1.3112,-1.31,-1.3073,-1.3066,-1.3045,-1.3027,-1.2997,-1.2975,-1.2954,-1.2947,-1.2949,-1.2944,-1.295,-1.2946,-1.2947,-1.2945,-1.2951,-1.2951,-1.2951,-1.2951,0,-1.3243,-1.3232,-1.3214,-1.3192,-1.3177,-1.3159,-1.314,-1.3132,-1.3104,-1.3091,-1.3071,-1.3057,-1.3029,-1.3009,-1.2985,-1.297,-1.2956,-1.2953,-1.2951,-1.2957,-1.2965,-1.296,-1.2951,-1.2953,-1.2953,-1.2953,-1.2953,-1.2953,-1.3255,-1.3245,-1.3221,-1.3202,-1.3185,-1.3167,-1.3155,-1.3136,-1.3119,-1.3094,-1.3081,-1.3061,-1.3037,-1.3004,-1.2989,-1.2973,-1.2968,-1.2966,-1.2965,-1.2965,-1.2966,-1.2968,-1.2968,-1.2968,-1.2968,-1.2968,-1.2968,0,-1.3265,-1.3248,-1.323,-1.3204,-1.3188,-1.3176,-1.3154,-1.3141,-1.3124,-1.3103,-1.3085,-1.3061,-1.3041,-1.3016,-1.2994,-1.2985,-1.2978,-1.298,-1.298,-1.2977,-1.2972,-1.2975,-1.2986,-1.2986,-1.2986,-1.2986,-1.2986,-1.2986,-1.3269,-1.3252,-1.3237,-1.3211,-1.3194,-1.3174,-1.3162,-1.3145,-1.3128,-1.3102,-1.3085,-1.3069,-1.3047,-1.3022,-1.3002,-1.2996,-1.2988,-1.2992,-1.2983,-1.2979,-1.2978,-1.2976,-1.2979,-1.2991,-1.2991,-1.299,-1.299,-1.299]}]]